This is the latest recevied weather packets stored in our database for station/object N3LF. If no packets are shown the sender has not sent any weather packets the latest 10 day(s).
| Time | Temp. | Humidity | Pressure | Rain* | Wind** | Luminosity | Snow |
|---|---|---|---|---|---|---|---|
| 1788476348 | 36.67° C | 49% | 1016.2 hPa | 0 mm | - | 80 W/m² | - |
| 1788476043 | 37.78° C | 47% | 1016.2 hPa | 0 mm | - | 88 W/m² | - |
| 1788475739 | 37.78° C | 48% | 1016.3 hPa | 0 mm | - | 100 W/m² | - |
| 1788475435 | 38.33° C | 45% | 1016.2 hPa | 0 mm | - | 111 W/m² | - |
| 1788475131 | 38.33° C | 46% | 1016.2 hPa | 0 mm | - | 122 W/m² | - |
| 1788474829 | 38.33° C | 46% | 1016.2 hPa | 0 mm | - | 134 W/m² | - |
| 1788474525 | 38.33° C | 44% | 1016.1 hPa | 0 mm | - | 144 W/m² | - |
| 1788474224 | 37.78° C | 45% | 1016.2 hPa | 0 mm | - | 156 W/m² | - |
| 1788473919 | 38.33° C | 45% | 1016.3 hPa | 0 mm | - | 169 W/m² | - |
| 1788473618 | 38.33° C | 41% | 1016.3 hPa | 0 mm | - | 182 W/m² | - |
| 1788473316 | 38.33° C | 46% | 1016.2 hPa | 0 mm | - | 191 W/m² | - |
| 1788473010 | 38.89° C | 45% | 1016.3 hPa | 0 mm | - | 209 W/m² | - |
| 1788472709 | 37.78° C | 46% | 1016.1 hPa | 0 mm | - | 221 W/m² | - |
| 1788472405 | 37.78° C | 44% | 1016.3 hPa | 0 mm | - | 237 W/m² | - |
| 1788472103 | 37.78° C | 43% | 1016.4 hPa | 0 mm | - | 248 W/m² | - |
| 1788471813 | 37.78° C | 44% | 1016.3 hPa | 0 mm | - | 261 W/m² | - |
| 1788471494 | 38.89° C | 44% | 1016.3 hPa | 0 mm | - | 271 W/m² | - |
| 1788471189 | 38.89° C | 43% | 1016.4 hPa | 0 mm | - | 284 W/m² | - |
| 1788470885 | 37.78° C | 47% | 1016.6 hPa | 0 mm | - | 301 W/m² | - |
| 1788470582 | 38.89° C | 48% | 1016.7 hPa | 0 mm | - | 318 W/m² | - |
| 1788470280 | 38.33° C | 46% | 1016.7 hPa | 0 mm | - | 331 W/m² | - |
| 1788469977 | 38.89° C | 45% | 1016.9 hPa | 0 mm | - | 346 W/m² | - |
| 1788469673 | 38.89° C | 46% | 1017 hPa | 0 mm | - | 359 W/m² | - |
| 1788469368 | 37.78° C | 44% | 1016.8 hPa | 0 mm | - | 372 W/m² | - |
| 1788469068 | 38.33° C | 46% | 1017 hPa | 0 mm | - | 381 W/m² | - |
* Rain latest hour (hover to see other rain measurements)
** Current wind speed in m/s (hover to see current wind gust speed)